Tracking 31027 objects as of 19-Jul-2025
HD Live streaming from Space Station
objects crossing your sky now

PSLV DEB

Track PSLV DEB now!
10-day predictions


NORAD ID: 35339
Int'l Code: 2001-049PX
Perigee: 618.0 km
Apogee: 827.3 km
Inclination: 98.4 °
Period: 99.1 minutes
Semi major axis: 7093 km
RCS: 0.0072 m2 (small)
Launch date: October 22, 2001
Source: India (IND)
Launch site: SRIHARIKOTA (SRI)

Note: This is SATELLITE DEBRIS
Your satellite tracking list
SL-8 DEB
Track 1 satellite(s)




NASA's NSSDC Master Catalog

Two Line Element Set (TLE):
1 35339U 01049PX  25199.29188604  .00003989  00000-0  84585-3 0  9993
2 35339  98.3514 324.7550 0147523  83.3954 278.4009 14.53102686190012
Source of the keplerian elements: AFSPC